Time,TemperatureF,DewpointF,PressureIn,WindDirection,WindDirectionDegrees,WindSpeedMPH,WindSpeedGustMPH,Humidity,HourlyPrecipIn,Conditions,Clouds,dailyrainin,SoftwareType,DateUTC
2013-02-05 00:00:00,39.5,32.2,29.87,SE,144,0.0,0.0,75,0.00,,---,0.00,VWS V14.01,2013-02-05 05:00:00,
2013-02-05 00:10:00,39.1,32.2,29.87,SE,145,0.0,0.0,76,0.00,,---,0.00,VWS V14.01,2013-02-05 05:10:00,
2013-02-05 00:20:00,39.1,32.2,29.86,ESE,119,0.0,0.0,76,0.00,,---,0.00,VWS V14.01,2013-02-05 05:20:00,
2013-02-05 00:30:00,38.9,32.3,29.85,SSE,148,0.0,0.0,77,0.00,,---,0.00,VWS V14.01,2013-02-05 05:30:00,
2013-02-05 00:40:00,39.1,32.8,29.85,SE,141,0.0,2.0,78,0.00,,---,0.00,VWS V14.01,2013-02-05 05:40:00,
2013-02-05 00:50:00,39.5,32.9,29.85,SSE,150,1.0,3.0,77,0.00,,---,0.00,VWS V14.01,2013-02-05 05:50:00,
2013-02-05 01:00:00,39.9,33.3,29.84,SSE,150,0.0,1.0,77,0.00,,---,0.00,VWS V14.01,2013-02-05 06:00:00,
2013-02-05 01:10:00,40.2,33.2,29.84,SE,137,0.0,3.0,76,0.00,,---,0.00,VWS V14.01,2013-02-05 06:10:00,
2013-02-05 01:20:00,40.3,33.3,29.83,SSE,148,0.0,2.0,76,0.00,,---,0.00,VWS V14.01,2013-02-05 06:20:00,
2013-02-05 01:30:00,40.5,33.9,29.83,SSW,210,0.0,2.0,77,0.00,,---,0.00,VWS V14.01,2013-02-05 06:30:00,
2013-02-05 01:40:00,40.5,33.9,29.83,ESE,117,0.0,5.0,77,0.00,,---,0.00,VWS V14.01,2013-02-05 06:40:00,
2013-02-05 01:50:00,40.5,33.9,29.83,SE,143,0.0,0.0,77,0.00,,---,0.00,VWS V14.01,2013-02-05 06:50:00,
2013-02-05 02:00:00,40.6,34.3,29.83,South,189,0.0,2.0,78,0.00,,---,0.00,VWS V14.01,2013-02-05 07:00:00,
2013-02-05 02:10:00,40.6,34.3,29.83,SE,141,0.0,2.0,78,0.00,,---,0.00,VWS V14.01,2013-02-05 07:10:00,
2013-02-05 02:20:00,40.6,34.6,29.82,SSE,157,0.0,3.0,79,0.00,,---,0.00,VWS V14.01,2013-02-05 07:20:00,
2013-02-05 02:30:00,40.6,34.3,29.81,South,179,0.0,0.0,78,0.00,,---,0.00,VWS V14.01,2013-02-05 07:30:00,
2013-02-05 02:40:00,40.8,34.5,29.81,ESE,103,0.0,3.0,78,0.00,,---,0.00,VWS V14.01,2013-02-05 07:40:00,
2013-02-05 02:50:00,40.6,34.6,29.81,SSE,162,0.0,1.0,79,0.00,,---,0.00,VWS V14.01,2013-02-05 07:50:00,
2013-02-05 03:00:00,40.5,34.5,29.80,SSE,162,0.0,0.0,79,0.00,,---,0.00,VWS V14.01,2013-02-05 08:00:00,
2013-02-05 03:10:00,40.5,34.8,29.80,SSE,162,0.0,0.0,80,0.00,,---,0.00,VWS V14.01,2013-02-05 08:10:00,
2013-02-05 03:20:00,40.3,34.6,29.80,SSE,162,0.0,0.0,80,0.00,,---,0.00,VWS V14.01,2013-02-05 08:20:00,
2013-02-05 03:30:00,40.3,34.6,29.80,SSE,151,0.0,0.0,80,0.00,,---,0.00,VWS V14.01,2013-02-05 08:30:00,
2013-02-05 03:40:00,40.2,34.8,29.80,SSE,151,0.0,0.0,81,0.00,,---,0.00,VWS V14.01,2013-02-05 08:40:00,
2013-02-05 03:50:00,40.1,34.8,29.80,SSE,151,0.0,0.0,81,0.00,,---,0.00,VWS V14.01,2013-02-05 08:50:00,
2013-02-05 04:00:00,39.9,34.9,29.80,SSE,151,0.0,0.0,82,0.00,,---,0.00,VWS V14.01,2013-02-05 09:00:00,
2013-02-05 04:10:00,39.9,34.9,29.80,SSE,151,0.0,0.0,82,0.00,,---,0.00,VWS V14.01,2013-02-05 09:10:00,
2013-02-05 04:20:00,39.8,34.8,29.80,SSE,151,0.0,0.0,82,0.00,,---,0.00,VWS V14.01,2013-02-05 09:20:00,
2013-02-05 04:30:00,39.8,34.8,29.80,SSE,151,0.0,0.0,82,0.00,,---,0.00,VWS V14.01,2013-02-05 09:30:00,
2013-02-05 04:40:00,39.6,35.2,29.80,SSE,151,0.0,0.0,84,0.00,,---,0.00,VWS V14.01,2013-02-05 09:40:00,
2013-02-05 04:50:00,39.5,35.1,29.80,SSE,151,0.0,0.0,84,0.00,,---,0.00,VWS V14.01,2013-02-05 09:50:00,
2013-02-05 05:00:00,39.6,35.2,29.79,SSE,151,0.0,0.0,84,0.00,,---,0.00,VWS V14.01,2013-02-05 10:00:00,
2013-02-05 05:10:00,39.5,35.4,29.79,SSE,151,0.0,0.0,85,0.00,,---,0.00,VWS V14.01,2013-02-05 10:10:00,
2013-02-05 05:20:00,39.3,35.5,29.79,SE,134,0.0,0.0,86,0.00,,---,0.00,VWS V14.01,2013-02-05 10:20:00,
2013-02-05 05:30:00,39.3,35.5,29.80,SE,143,0.0,0.0,86,0.00,,---,0.00,VWS V14.01,2013-02-05 10:30:00,
2013-02-05 05:40:00,39.2,35.4,29.80,SE,143,0.0,0.0,86,0.00,,---,0.00,VWS V14.01,2013-02-05 10:40:00,
2013-02-05 05:50:00,39.1,35.3,29.81,SE,143,0.0,0.0,86,0.00,,---,0.00,VWS V14.01,2013-02-05 10:50:00,
2013-02-05 06:00:00,39.1,35.3,29.81,SE,143,0.0,0.0,86,0.00,,---,0.00,VWS V14.01,2013-02-05 11:00:00,
2013-02-05 06:10:00,39.1,35.3,29.81,SE,143,0.0,0.0,86,0.00,,---,0.00,VWS V14.01,2013-02-05 11:10:00,
2013-02-05 06:20:00,38.8,35.3,29.81,SE,143,0.0,0.0,87,0.00,,---,0.00,VWS V14.01,2013-02-05 11:20:00,
2013-02-05 06:30:00,38.6,35.6,29.81,SE,143,0.0,0.0,89,0.00,,---,0.00,VWS V14.01,2013-02-05 11:30:00,
2013-02-05 06:40:00,38.3,35.6,29.81,SE,143,0.0,0.0,90,0.00,,---,0.00,VWS V14.01,2013-02-05 11:40:00,
2013-02-05 06:50:00,38.3,35.3,29.82,SE,143,0.0,0.0,89,0.00,,---,0.00,VWS V14.01,2013-02-05 11:50:00,
2013-02-05 07:00:00,38.3,35.6,29.82,SE,138,0.0,0.0,90,0.00,,---,0.00,VWS V14.01,2013-02-05 12:00:00,
2013-02-05 07:10:00,38.3,35.6,29.82,SE,138,0.0,0.0,90,0.00,,---,0.00,VWS V14.01,2013-02-05 12:10:00,
2013-02-05 07:20:00,38.6,35.9,29.82,SE,134,0.0,3.0,90,0.00,,---,0.00,VWS V14.01,2013-02-05 12:20:00,
2013-02-05 07:30:00,38.9,35.9,29.82,SE,133,0.0,2.0,89,0.00,,---,0.00,VWS V14.01,2013-02-05 12:30:00,
2013-02-05 07:40:00,39.2,36.0,29.82,SE,133,0.0,0.0,88,0.00,,---,0.00,VWS V14.01,2013-02-05 12:40:00,
2013-02-05 07:50:00,39.5,36.2,29.82,SE,131,0.0,0.0,88,0.00,,---,0.00,VWS V14.01,2013-02-05 12:50:00,
2013-02-05 08:00:00,39.8,36.5,29.83,South,185,0.0,0.0,88,0.00,,---,0.00,VWS V14.01,2013-02-05 13:00:00,
2013-02-05 08:10:00,39.6,36.1,29.83,South,185,0.0,0.0,87,0.00,,---,0.00,VWS V14.01,2013-02-05 13:10:00,
2013-02-05 08:20:00,39.8,36.5,29.84,South,185,0.0,0.0,88,0.00,,---,0.00,VWS V14.01,2013-02-05 13:20:00,
2013-02-05 08:30:00,40.3,36.8,29.84,South,185,0.0,0.0,87,0.00,,---,0.00,VWS V14.01,2013-02-05 13:30:00,
2013-02-05 08:40:00,41.5,36.7,29.84,South,182,0.0,0.0,83,0.00,,---,0.00,VWS V14.01,2013-02-05 13:40:00,
2013-02-05 08:50:00,42.6,37.2,29.84,SSE,154,0.0,0.0,81,0.00,,---,0.00,VWS V14.01,2013-02-05 13:50:00,
2013-02-05 09:00:00,43.5,37.4,29.84,SE,143,0.0,4.0,79,0.00,,---,0.00,VWS V14.01,2013-02-05 14:00:00,
2013-02-05 09:10:00,44.9,38.1,29.84,SSE,160,0.0,2.0,77,0.00,,---,0.00,VWS V14.01,2013-02-05 14:10:00,
2013-02-05 09:20:00,46.7,38.2,29.84,South,184,0.0,4.0,72,0.00,,---,0.00,VWS V14.01,2013-02-05 14:20:00,
2013-02-05 09:30:00,47.7,39.1,29.84,South,171,0.0,0.0,72,0.00,,---,0.00,VWS V14.01,2013-02-05 14:30:00,
2013-02-05 09:40:00,48.8,39.1,29.84,SSE,167,0.0,3.0,69,0.00,,---,0.00,VWS V14.01,2013-02-05 14:40:00,
2013-02-05 09:50:00,49.2,38.7,29.83,SSE,162,0.0,5.0,67,0.00,,---,0.00,VWS V14.01,2013-02-05 14:50:00,
2013-02-05 10:00:00,49.8,39.3,29.83,South,184,3.0,3.0,67,0.00,,---,0.00,VWS V14.01,2013-02-05 15:00:00,
2013-02-05 10:10:00,49.1,39.4,29.83,SSE,168,0.0,7.0,69,0.00,,---,0.00,VWS V14.01,2013-02-05 15:10:00,
2013-02-05 10:20:00,49.6,39.1,29.83,South,178,0.0,7.0,67,0.00,,---,0.00,VWS V14.01,2013-02-05 15:20:00,
2013-02-05 10:30:00,50.5,39.2,29.83,ESE,110,0.0,6.0,65,0.00,,---,0.00,VWS V14.01,2013-02-05 15:30:00,
2013-02-05 10:40:00,50.7,39.8,29.83,SSE,165,0.0,4.0,66,0.00,,---,0.00,VWS V14.01,2013-02-05 15:40:00,
2013-02-05 10:50:00,50.7,39.8,29.84,South,189,0.0,1.0,66,0.00,,---,0.00,VWS V14.01,2013-02-05 15:50:00,
2013-02-05 11:00:00,50.7,39.8,29.83,SW,223,0.0,5.0,66,0.00,,---,0.00,VWS V14.01,2013-02-05 16:00:00,
2013-02-05 11:10:00,50.8,39.5,29.83,SW,233,0.0,5.0,65,0.00,,---,0.00,VWS V14.01,2013-02-05 16:10:00,
2013-02-05 11:20:00,51.6,39.4,29.83,ESE,110,0.0,2.0,63,0.00,,---,0.00,VWS V14.01,2013-02-05 16:20:00,
2013-02-05 11:30:00,51.7,39.9,29.82,SSE,158,0.0,7.0,64,0.00,,---,0.00,VWS V14.01,2013-02-05 16:30:00,
2013-02-05 11:40:00,52.2,40.4,29.82,SSE,168,0.0,7.0,64,0.00,,---,0.00,VWS V14.01,2013-02-05 16:40:00,
2013-02-05 11:50:00,53.1,39.6,29.81,SSE,164,0.0,4.0,60,0.00,,---,0.00,VWS V14.01,2013-02-05 16:50:00,
2013-02-05 12:00:00,53.5,40.0,29.81,SE,145,0.0,7.0,60,0.00,,---,0.00,VWS V14.01,2013-02-05 17:00:00,
2013-02-05 12:10:00,54.4,40.4,29.81,South,179,0.0,6.0,59,0.00,,---,0.00,VWS V14.01,2013-02-05 17:10:00,
2013-02-05 12:20:00,54.4,40.4,29.80,SE,128,0.0,6.0,59,0.00,,---,0.00,VWS V14.01,2013-02-05 17:20:00,
2013-02-05 12:30:00,54.4,39.5,29.80,SW,219,0.0,3.0,57,0.00,,---,0.00,VWS V14.01,2013-02-05 17:30:00,
2013-02-05 12:40:00,54.4,40.0,29.80,South,186,0.0,2.0,58,0.00,,---,0.00,VWS V14.01,2013-02-05 17:40:00,
2013-02-05 12:50:00,55.1,40.6,29.78,South,184,0.0,4.0,58,0.00,,---,0.00,VWS V14.01,2013-02-05 17:50:00,
2013-02-05 13:00:00,56.2,39.8,29.77,SSE,168,0.0,5.0,54,0.00,,---,0.00,VWS V14.01,2013-02-05 18:00:00,
2013-02-05 13:10:00,56.9,39.5,29.77,SW,223,0.0,3.0,52,0.00,,---,0.00,VWS V14.01,2013-02-05 18:10:00,
2013-02-05 13:20:00,56.9,39.5,29.77,SSE,162,0.0,2.0,52,0.00,,---,0.00,VWS V14.01,2013-02-05 18:20:00,
2013-02-05 13:30:00,56.6,39.2,29.76,SE,128,0.0,1.0,52,0.00,,---,0.00,VWS V14.01,2013-02-05 18:30:00,
2013-02-05 13:40:00,57.5,40.0,29.76,SSE,161,0.0,0.0,52,0.00,,---,0.00,VWS V14.01,2013-02-05 18:40:00,
2013-02-05 13:50:00,58.0,40.0,29.75,SSW,209,0.0,6.0,51,0.00,,---,0.00,VWS V14.01,2013-02-05 18:50:00,
2013-02-05 14:00:00,58.6,38.5,29.75,WSW,254,0.0,5.0,47,0.00,,---,0.00,VWS V14.01,2013-02-05 19:00:00,
2013-02-05 14:10:00,58.7,39.6,29.75,SSW,213,0.0,2.0,49,0.00,,---,0.00,VWS V14.01,2013-02-05 19:10:00,
2013-02-05 14:20:00,59.2,40.1,29.74,SW,217,0.0,2.0,49,0.00,,---,0.00,VWS V14.01,2013-02-05 19:20:00,
2013-02-05 14:30:00,60.4,40.6,29.74,ESE,110,0.0,0.0,48,0.00,,---,0.00,VWS V14.01,2013-02-05 19:30:00,
2013-02-05 14:40:00,60.7,40.9,29.74,ESE,112,0.0,5.0,48,0.00,,---,0.00,VWS V14.01,2013-02-05 19:40:00,
2013-02-05 14:50:00,60.4,41.2,29.73,SE,140,0.0,5.0,49,0.00,,---,0.00,VWS V14.01,2013-02-05 19:50:00,
2013-02-05 15:00:00,60.1,41.4,29.73,South,189,0.0,5.0,50,0.00,,---,0.00,VWS V14.01,2013-02-05 20:00:00,
2013-02-05 15:10:00,60.4,42.2,29.73,East,99,4.0,6.0,51,0.00,,---,0.00,VWS V14.01,2013-02-05 20:10:00,
2013-02-05 15:20:00,60.4,41.2,29.73,WSW,241,0.0,8.0,49,0.00,,---,0.00,VWS V14.01,2013-02-05 20:20:00,
2013-02-05 15:30:00,60.4,42.2,29.72,SSE,165,0.0,2.0,51,0.00,,---,0.00,VWS V14.01,2013-02-05 20:30:00,
2013-02-05 15:40:00,60.7,42.0,29.72,SSW,199,0.0,0.0,50,0.00,,---,0.00,VWS V14.01,2013-02-05 20:40:00,
2013-02-05 15:50:00,60.9,43.2,29.72,SSE,162,0.0,6.0,52,0.00,,---,0.00,VWS V14.01,2013-02-05 20:50:00,
2013-02-05 16:00:00,60.9,42.2,29.73,SSE,165,0.0,3.0,50,0.00,,---,0.00,VWS V14.01,2013-02-05 21:00:00,
2013-02-05 16:10:00,60.5,41.8,29.73,WSW,248,1.0,6.0,50,0.00,,---,0.00,VWS V14.01,2013-02-05 21:10:00,
2013-02-05 16:20:00,60.2,42.5,29.73,South,181,0.0,6.0,52,0.00,,---,0.00,VWS V14.01,2013-02-05 21:20:00,
2013-02-05 16:30:00,59.8,41.7,29.73,SSE,155,0.0,3.0,51,0.00,,---,0.00,VWS V14.01,2013-02-05 21:30:00,
2013-02-05 16:40:00,59.5,41.9,29.73,SW,227,0.0,6.0,52,0.00,,---,0.00,VWS V14.01,2013-02-05 21:40:00,
2013-02-05 16:50:00,59.3,41.7,29.74,WSW,241,0.0,5.0,52,0.00,,---,0.00,VWS V14.01,2013-02-05 21:50:00,
2013-02-05 17:00:00,59.2,41.6,29.74,WSW,244,0.0,6.0,52,0.00,,---,0.00,VWS V14.01,2013-02-05 22:00:00,
2013-02-05 17:10:00,58.7,41.1,29.74,WSW,250,0.0,1.0,52,0.00,,---,0.00,VWS V14.01,2013-02-05 22:10:00,
2013-02-05 17:20:00,58.4,41.3,29.74,West,260,0.0,3.0,53,0.00,,---,0.00,VWS V14.01,2013-02-05 22:20:00,
2013-02-05 17:30:00,57.8,41.3,29.74,WSW,258,0.0,2.0,54,0.00,,---,0.00,VWS V14.01,2013-02-05 22:30:00,
2013-02-05 17:40:00,57.3,41.3,29.74,WSW,258,0.0,0.0,55,0.00,,---,0.00,VWS V14.01,2013-02-05 22:40:00,
2013-02-05 17:50:00,56.9,41.4,29.74,WSW,258,0.0,0.0,56,0.00,,---,0.00,VWS V14.01,2013-02-05 22:50:00,
2013-02-05 18:00:00,56.2,41.2,29.75,WSW,258,0.0,0.0,57,0.00,,---,0.00,VWS V14.01,2013-02-05 23:00:00,
2013-02-05 18:10:00,55.6,41.1,29.75,WSW,258,0.0,0.0,58,0.00,,---,0.00,VWS V14.01,2013-02-05 23:10:00,
2013-02-05 18:20:00,55.0,41.0,29.75,WSW,258,0.0,0.0,59,0.00,,---,0.00,VWS V14.01,2013-02-05 23:20:00,
2013-02-05 18:30:00,54.4,40.8,29.75,WSW,258,0.0,0.0,60,0.00,,---,0.00,VWS V14.01,2013-02-05 23:30:00,
2013-02-05 18:40:00,53.9,40.8,29.75,WSW,258,0.0,0.0,61,0.00,,---,0.00,VWS V14.01,2013-02-05 23:40:00,
2013-02-05 18:50:00,53.5,40.4,29.76,WSW,258,0.0,0.0,61,0.00,,---,0.00,VWS V14.01,2013-02-05 23:50:00,
2013-02-05 19:00:00,53.3,40.6,29.77,WSW,258,0.0,0.0,62,0.00,,---,0.00,VWS V14.01,2013-02-06 00:00:00,
2013-02-05 19:10:00,53.1,40.8,29.77,WSW,258,0.0,0.0,63,0.00,,---,0.00,VWS V14.01,2013-02-06 00:10:00,
2013-02-05 19:20:00,52.8,40.6,29.77,WSW,258,0.0,0.0,63,0.00,,---,0.00,VWS V14.01,2013-02-06 00:20:00,
2013-02-05 19:30:00,52.5,40.7,29.77,WSW,258,0.0,0.0,64,0.00,,---,0.00,VWS V14.01,2013-02-06 00:30:00,
2013-02-05 19:40:00,52.2,40.4,29.77,WSW,258,0.0,0.0,64,0.00,,---,0.00,VWS V14.01,2013-02-06 00:40:00,
2013-02-05 19:50:00,52.2,40.4,29.77,WSW,258,0.0,0.0,64,0.00,,---,0.00,VWS V14.01,2013-02-06 00:50:00,
2013-02-05 20:00:00,51.1,40.5,29.78,WSW,258,0.0,0.0,67,0.00,,---,0.00,VWS V14.01,2013-02-06 01:00:00,
2013-02-05 20:10:00,50.1,40.3,29.78,WSW,258,0.0,0.0,69,0.00,,---,0.00,VWS V14.01,2013-02-06 01:10:00,
2013-02-05 20:20:00,49.6,40.2,29.78,WSW,258,0.0,0.0,70,0.00,,---,0.00,VWS V14.01,2013-02-06 01:20:00,
2013-02-05 20:30:00,49.5,40.1,29.78,WSW,258,0.0,0.0,70,0.00,,---,0.00,VWS V14.01,2013-02-06 01:30:00,
2013-02-05 20:40:00,49.4,40.0,29.78,WSW,258,0.0,0.0,70,0.00,,---,0.00,VWS V14.01,2013-02-06 01:40:00,
2013-02-05 20:50:00,48.6,40.3,29.79,WSW,258,0.0,0.0,73,0.00,,---,0.00,VWS V14.01,2013-02-06 01:50:00,
2013-02-05 21:00:00,47.4,39.9,29.80,WSW,258,0.0,0.0,75,0.00,,---,0.00,VWS V14.01,2013-02-06 02:00:00,
2013-02-05 21:10:00,47.0,39.5,29.80,WSW,258,0.0,0.0,75,0.00,,---,0.00,VWS V14.01,2013-02-06 02:10:00,
2013-02-05 21:20:00,47.1,39.6,29.80,WSW,258,0.0,0.0,75,0.00,,---,0.00,VWS V14.01,2013-02-06 02:20:00,
2013-02-05 21:30:00,47.7,39.5,29.81,WSW,258,0.0,0.0,73,0.00,,---,0.00,VWS V14.01,2013-02-06 02:30:00,
2013-02-05 21:40:00,48.5,39.5,29.81,WSW,258,0.0,0.0,71,0.00,,---,0.00,VWS V14.01,2013-02-06 02:40:00,
2013-02-05 21:50:00,48.9,39.9,29.81,WSW,258,0.0,0.0,71,0.00,,---,0.00,VWS V14.01,2013-02-06 02:50:00,
2013-02-05 22:00:00,48.9,39.6,29.81,WSW,258,0.0,0.0,70,0.00,,---,0.00,VWS V14.01,2013-02-06 03:00:00,
2013-02-05 22:10:00,48.9,39.9,29.81,WSW,258,0.0,0.0,71,0.00,,---,0.00,VWS V14.01,2013-02-06 03:10:00,
2013-02-05 22:20:00,48.8,39.8,29.81,WSW,258,0.0,0.0,71,0.00,,---,0.00,VWS V14.01,2013-02-06 03:20:00,
2013-02-05 22:30:00,48.3,39.7,29.82,WSW,258,0.0,0.0,72,0.00,,---,0.00,VWS V14.01,2013-02-06 03:30:00,
2013-02-05 22:40:00,47.6,39.4,29.82,WSW,258,0.0,0.0,73,0.00,,---,0.00,VWS V14.01,2013-02-06 03:40:00,
2013-02-05 22:50:00,47.3,39.1,29.82,WSW,258,0.0,0.0,73,0.00,,---,0.00,VWS V14.01,2013-02-06 03:50:00,
2013-02-05 23:00:00,46.7,39.2,29.82,WSW,258,0.0,0.0,75,0.00,,---,0.00,VWS V14.01,2013-02-06 04:00:00,
2013-02-05 23:10:00,46.2,39.1,29.82,WSW,258,0.0,0.0,76,0.00,,---,0.00,VWS V14.01,2013-02-06 04:10:00,
2013-02-05 23:20:00,44.8,39.3,29.82,WSW,258,0.0,0.0,81,0.00,,---,0.00,VWS V14.01,2013-02-06 04:20:00,
2013-02-05 23:30:00,44.2,39.1,29.82,WSW,258,0.0,0.0,82,0.00,,---,0.00,VWS V14.01,2013-02-06 04:30:00,
2013-02-05 23:40:00,44.2,39.1,29.82,WSW,258,0.0,0.0,82,0.00,,---,0.00,VWS V14.01,2013-02-06 04:40:00,
2013-02-05 23:50:00,43.9,39.1,29.82,WSW,258,0.0,0.0,83,0.00,,---,0.00,VWS V14.01,2013-02-06 04:50:00,